Theta_e
309 309 310 309 309 308 298 290 283 299 298 279 277 270 272 286 286 290 288 287 286 287 289 288 288 287 291 297 296 290 293 288 282 288 293 296 294 291 291 283 278 282 281 281
309 309 310 310 309 303 294 285 287 298 293 272 272 271 277 283 283 285 286 285 289 286 285 286 289 290 294 296 295 292 293 287 279 281 288 290 289 292 292 291 286 283 280 283
305 307 308 308 306 303 295 286 281 286 288 280 275 272 272 274 285 285 287 286 287 285 283 285 287 288 292 294 296 297 297 287 284 280 281 287 285 288 291 289 284 284 284 285
305 304 303 303 302 301 294 285 281 282 280 280 278 281 278 274 275 285 287 283 284 283 280 284 285 290 290 294 296 296 293 284 287 287 285 286 286 287 288 287 288 284 286 286
304 304 303 303 302 300 290 284 284 285 282 281 280 280 275 279 279 283 283 281 284 287 283 286 283 289 289 289 291 293 293 281 285 281 286 286 284 286 288 288 288 288 288 287
304 304 303 302 302 297 289 290 290 285 279 274 277 279 279 279 282 285 288 287 285 284 286 290 292 294 295 293 291 290 290 286 283 279 283 283 280 285 286 287 289 288 284 289
304 303 303 301 301 298 290 291 290 284 274 278 280 281 282 281 282 281 287 288 287 292 296 295 292 290 290 290 290 292 287 286 284 281 277 274 283 288 289 287 288 290 290 291
304 304 303 303 303 301 297 294 290 285 279 283 283 283 282 285 287 286 285 289 292 297 291 285 283 280 283 284 285 286 288 284 281 279 278 280 282 285 284 284 285 290 289 291
304 304 304 304 304 303 298 294 296 292 283 282 285 283 286 280 284 284 286 290 294 294 286 283 276 275 275 274 277 285 288 288 284 273 276 272 283 288 289 288 279 289 290 290
305 305 305 305 305 305 297 292 294 293 283 285 285 284 285 287 285 282 284 286 286 290 281 275 274 273 277 272 270 277 282 282 281 281 278 278 284 285 287 278 281 287 289 290
305 304 304 303 303 304 295 290 292 290 285 285 282 284 283 286 285 280 284 283 284 283 278 273 276 275 277 273 275 275 278 278 279 278 277 275 286 284 282 285 285 284 285 286
303 303 303 303 303 303 302 291 293 294 286 286 287 286 287 286 286 285 284 282 280 284 276 274 272 270 269 270 270 280 274 279 274 278 277 284 284 285 285 286 286 285 284 285
300 300 301 302 303 302 300 291 289 289 285 284 279 280 285 288 289 289 279 279 286 284 285 278 274 270 277 268 271 275 278 281 279 279 282 282 283 284 285 285 286 286 284 283
299 298 300 301 300 300 296 289 290 289 285 282 279 287 283 287 288 287 288 287 289 289 283 278 274 269 280 274 279 278 279 280 279 280 282 282 283 283 281 279 279 280 280 279
297 298 297 298 298 296 291 289 289 288 286 278 283 282 284 283 284 285 286 285 285 285 282 281 280 278 279 275 277 280 281 281 279 279 284 283 284 280 278 278 278 276 276 276
295 297 296 298 296 295 293 285 287 285 288 272 274 283 275 270 275 284 285 284 284 285 284 283 284 284 281 276 270 280 282 279 282 284 282 281 277 276 275 275 274 274 273 274
294 295 296 298 297 289 285 279 284 288 284 282 271 279 280 268 278 283 284 284 283 283 283 282 281 283 283 280 277 281 277 280 273 271 274 275 273 274 270 270 268 269 268 268
293 295 295 296 294 290 283 282 287 285 281 279 269 276 278 271 277 279 281 280 281 280 273 280 278 278 279 276 281 278 277 271 269 269 269 269 269 269 269 269 268 266 267 267
294 295 294 287 279 274 273 285 283 280 277 267 262 267 267 270 267 271 277 280 276 272 270 271 270 270 274 277 275 273 271 271 269 268 269 269 268 269 268 265 265 265 266 266
290 285 274 267 270 284 283 273 267 267 265 264 265 258 265 268 265 274 265 277 275 265 266 265 263 265 270 272 268 268 269 269 267 266 269 270 269 269 269 268 268 268 268 267
272 266 268 274 282 273 264 263 264 260 262 258 257 260 264 266 265 264 266 263 262 262 264 263 257 264 269 263 262 261 264 264 262 262 263 262 263 265 267 268 268 267 267 266
272 271 272 268 265 264 264 259 258 259 264 258 261 261 262 260 264 260 261 259 259 260 255 258 258 267 266 260 259 258 257 259 259 258 259 259 260 259 260 263 263 264 264 264
271 266 266 266 263 263 262 260 262 260 258 256 256 259 263 260 263 257 258 257 260 255 255 259 264 265 261 261 253 253 250 251 253 253 253 252 253 252 253 256 256 257 258 258
269 266 266 266 261 260 261 261 260 259 258 258 260 256 260 258 259 257 258 256 255 254 254 261 264 265 261 256 252 255 253 252 252 252 250 250 250 251 248 249 250 253 253 253
267 266 266 263 260 253 251 249 253 255 256 258 260 259 267 259 261 260 258 259 256 259 264 263 265 261 255 254 252 257 251 251 253 250 251 250 248 248 253 251 246 248 248 249
266 262 264 256 260 257 250 249 254 254 259 257 259 256 257 260 260 258 260 261 262 268 265 263 259 259 258 257 255 258 255 254 253 252 251 249 249 249 249 247 250 248 247 248
264 265 254 258 258 261 256 253 255 257 257 258 256 260 265 259 256 257 264 264 269 267 266 264 262 262 262 260 257 255 256 255 253 251 251 252 249 247 247 249 250 248 247 247
Wind_Speed
12 13 18 18 23 28 12 4 4 6 9 5 2 4 7 4 1 3 4 3 2 7 15 15 16 14 14 19 17 23 8 5 5 13 2 9 19 13 14 6 7 6 6 12
8 13 18 22 30 19 6 4 3 2 4 4 2 4 0 3 2 2 6 7 5 4 8 9 13 14 11 17 20 17 13 5 3 2 3 3 7 12 12 14 0 10 5 18
33 32 19 20 23 14 6 5 5 2 1 2 8 4 3 2 5 3 4 3 2 4 7 11 12 13 4 10 21 10 16 5 13 18 6 8 8 12 16 16 11 19 16 29
28 28 27 24 20 10 4 4 1 1 6 7 2 5 6 6 4 5 7 3 13 7 6 9 9 17 6 6 13 14 11 9 13 16 4 3 8 16 16 18 25 18 22 20
22 21 21 18 13 12 6 4 4 2 2 4 9 8 6 8 3 8 6 11 9 13 8 9 7 8 10 10 4 15 5 5 6 7 7 9 8 6 12 22 19 16 22 23
15 15 13 12 12 9 4 1 2 3 4 4 6 9 9 6 7 7 7 11 11 12 17 6 14 10 4 5 11 15 12 6 5 8 3 4 8 22 23 16 17 16 17 24
12 12 10 9 8 7 4 2 3 3 5 6 11 7 12 16 12 20 3 10 12 4 8 4 9 9 7 6 3 5 7 12 5 9 4 11 11 8 19 23 22 21 23 25
5 4 2 2 6 4 2 3 3 3 4 9 12 15 11 10 12 15 14 7 5 2 10 2 3 3 3 5 4 3 3 5 4 8 13 7 9 13 10 12 22 17 21 26
3 4 7 7 8 1 3 2 2 2 1 3 1 9 10 4 4 5 4 3 2 4 3 4 3 5 3 2 7 3 1 3 7 2 9 14 17 25 9 5 6 21 23 20
2 6 10 5 6 10 3 0 2 1 1 1 1 2 7 3 1 1 1 2 3 2 2 3 2 3 7 6 9 9 7 6 14 14 14 7 11 7 6 10 15 6 11 14
9 8 8 8 6 6 3 1 3 2 1 1 2 1 3 3 3 3 3 3 2 2 2 3 3 3 6 2 4 8 11 7 10 7 10 14 8 3 11 6 2 2 1 5
8 6 6 6 7 5 1 0 1 1 3 1 2 0 1 3 1 1 1 3 2 3 3 1 2 1 2 3 6 2 3 9 6 9 8 7 6 7 5 5 6 5 4 7
10 9 6 6 8 5 4 2 1 2 1 0 3 0 2 5 4 3 2 3 4 2 1 4 3 3 4 4 7 4 4 3 5 1 10 8 8 8 7 5 7 6 4 4
12 11 9 5 4 5 4 2 0 2 2 0 3 2 3 3 4 4 2 2 2 2 2 2 2 2 2 3 6 7 7 6 5 14 10 8 11 9 4 3 4 5 6 3
12 9 9 5 7 8 7 3 3 2 2 3 2 2 2 3 4 3 2 1 1 1 1 1 3 2 1 3 2 16 5 13 9 17 14 9 11 2 1 4 3 3 4 5
13 10 6 7 3 3 2 2 1 2 2 4 2 1 3 6 5 4 2 2 2 1 2 2 3 4 3 4 6 7 10 7 10 20 6 6 1 1 2 3 2 2 5 5
13 9 3 1 5 3 2 4 1 2 1 2 2 2 1 1 2 1 0 3 2 3 2 4 3 2 3 4 16 8 7 9 4 2 3 6 3 4 2 1 2 2 2 2
12 6 2 8 11 8 0 3 2 3 3 1 3 1 1 2 2 3 0 1 1 2 3 2 1 1 3 8 15 5 5 3 1 2 2 2 1 2 3 2 2 4 5 3
7 4 3 4 4 1 4 1 4 2 4 3 3 5 5 4 1 1 0 0 2 1 2 0 1 3 9 11 6 4 2 2 2 3 1 2 4 6 3 2 4 5 4 2
2 5 5 4 3 3 3 6 5 6 5 5 3 1 1 2 2 2 3 2 2 2 3 1 2 8 8 8 5 4 5 5 5 2 4 2 4 4 4 6 5 4 3 2
4 2 3 3 3 4 5 1 3 3 4 1 3 3 3 3 3 4 1 2 1 1 5 4 4 7 7 1 4 3 2 2 3 3 2 2 1 3 4 3 3 2 2 3
4 3 1 3 5 4 4 2 4 2 6 2 4 2 2 2 3 4 3 3 4 6 0 4 5 8 5 5 5 4 3 5 4 2 3 1 0 2 3 3 2 2 2 3
3 5 4 5 4 4 6 4 6 2 2 3 2 0 1 3 3 3 4 4 6 2 3 7 9 5 4 5 3 2 1 2 3 2 1 0 2 5 2 2 1 3 4 2
3 4 4 5 4 6 6 6 5 3 3 3 3 2 3 2 4 2 4 5 4 3 2 9 5 6 5 5 3 5 5 6 5 4 2 2 1 3 3 4 3 3 4 4
2 5 5 7 2 1 2 2 1 3 2 3 3 3 2 2 2 1 3 3 5 8 8 6 5 4 4 3 4 6 4 5 5 4 4 4 3 2 4 2 2 1 2 3
4 1 1 1 2 3 2 2 2 2 2 2 3 3 4 4 4 3 8 5 8 6 5 5 2 3 4 4 5 5 3 4 4 5 4 4 4 4 4 3 3 2 2 4
2 4 1 2 2 3 3 4 3 2 4 3 4 4 10 2 2 4 6 8 6 5 4 3 4 5 5 5 4 4 5 6 5 4 4 3 2 2 3 3 4 4 4 4
Wind_Direction
164 174 172 165 156 134 86 98 108 149 130 84 149 174 179 220 124 116 133 105 261 261 195 193 205 215 209 195 179 203 191 163 188 203 229 218 210 192 187 193 220 236 268 260
90 171 164 159 146 132 111 85 79 185 87 150 217 309 67 137 262 169 159 187 172 64 7 228 203 206 206 189 189 184 175 202 124 342 295 297 212 221 217 208 143 227 241 262
76 74 101 126 126 118 97 111 122 79 52 139 137 130 245 210 227 253 183 210 196 254 304 312 218 232 210 188 199 192 170 168 211 223 204 142 202 209 214 218 230 240 229 256
82 82 83 82 88 69 75 35 93 186 158 222 122 149 179 157 199 224 211 233 211 176 235 281 255 202 181 206 187 187 172 214 217 242 206 186 206 211 214 218 228 227 249 241
83 85 96 111 114 88 69 114 135 74 95 136 173 209 229 197 186 173 204 238 216 176 222 203 310 216 192 186 170 195 210 242 156 259 238 226 245 230 228 231 242 251 250 260
88 95 94 87 79 77 102 83 35 124 180 133 154 215 210 219 200 239 221 215 244 214 220 229 255 237 201 203 178 187 180 175 142 239 226 117 240 233 235 235 232 235 245 254
76 78 81 84 80 77 122 146 116 135 248 188 202 199 199 214 212 230 214 217 233 223 64 71 266 37 60 62 59 194 173 203 189 240 87 240 244 203 217 230 235 236 244 251
83 72 133 205 205 186 79 130 151 183 236 217 213 204 206 207 233 230 231 224 248 108 54 38 114 357 20 341 281 245 149 160 204 230 231 284 299 254 202 204 243 242 239 244
233 345 36 44 47 155 142 135 226 246 264 245 140 185 193 190 224 170 204 254 186 103 153 220 144 160 129 280 314 3 128 354 206 150 229 233 242 251 206 117 257 245 233 242
137 67 39 40 18 9 73 80 21 142 322 289 64 147 203 120 219 278 147 215 130 167 147 91 144 222 171 176 181 180 187 211 225 227 237 242 249 236 89 160 238 287 227 234
51 53 35 22 11 8 80 221 7 102 224 252 152 191 125 182 175 166 208 72 333 72 95 120 240 150 213 154 213 181 182 187 218 219 241 247 222 95 197 246 259 217 205 184
19 20 14 357 337 336 28 350 352 20 127 218 102 154 283 16 161 299 307 171 170 165 100 4 78 269 24 138 255 135 242 193 179 178 213 231 237 228 230 197 224 242 200 224
360 353 353 15 22 32 126 130 350 54 42 263 83 166 323 36 6 309 139 333 356 43 124 166 201 209 120 180 246 228 279 158 215 30 245 243 261 256 251 223 233 273 255 217
342 351 355 40 45 64 104 103 220 96 103 328 293 358 47 356 7 6 16 26 358 352 37 93 152 161 130 244 255 231 193 158 217 254 268 291 267 256 239 264 283 295 305 281
341 335 359 27 33 78 77 74 41 47 99 206 323 333 88 11 342 311 140 231 219 213 329 234 230 246 38 244 262 254 186 245 236 258 264 230 260 151 135 277 288 319 296 306
332 315 321 337 160 90 12 3 189 160 156 101 178 104 332 338 338 334 255 154 187 178 193 205 233 244 145 257 257 240 212 215 225 258 257 219 311 237 144 253 273 300 297 292
326 305 279 208 142 97 183 184 206 166 111 167 10 239 103 120 304 306 33 161 189 197 210 228 227 227 207 247 257 254 231 241 228 171 91 293 167 270 42 1 311 332 294 294
328 295 197 105 96 110 245 333 89 110 112 35 151 233 226 2 179 184 279 182 167 212 228 319 263 272 198 255 248 267 255 122 122 187 42 89 331 334 299 331 328 297 280 285
335 237 134 45 43 87 237 183 54 48 130 164 111 154 228 357 264 203 173 71 226 284 213 252 50 256 228 237 231 264 237 184 158 128 176 278 271 289 279 253 282 265 273 291
73 58 61 337 267 287 45 7 28 13 333 30 177 14 198 84 358 108 51 186 253 224 254 337 149 255 279 267 218 179 173 159 121 23 302 246 265 263 278 254 247 252 270 258
42 78 183 232 326 57 34 352 95 315 349 12 228 161 155 311 118 193 200 185 262 75 256 136 279 271 249 219 149 175 156 165 201 134 112 66 260 288 303 287 260 263 196 209
196 196 38 26 47 37 77 252 328 105 232 308 131 222 162 287 79 90 322 146 46 241 235 69 269 251 242 187 211 221 175 153 152 115 133 118 252 289 279 261 207 183 155 139
37 48 44 64 304 34 135 246 297 306 178 202 157 129 135 10 39 56 75 90 227 25 52 231 234 255 260 217 186 220 291 95 120 147 154 354 319 343 9 272 314 127 114 123
96 110 287 156 276 249 189 186 193 237 119 134 123 83 138 195 66 151 106 242 66 17 318 239 253 241 235 175 203 132 215 195 188 223 236 239 245 278 303 325 290 151 173 199
171 94 234 220 234 54 195 211 29 265 167 99 64 36 103 1 91 130 94 16 263 207 233 233 242 250 181 202 198 202 216 195 202 192 202 226 246 276 298 291 297 210 158 163
118 130 316 275 44 294 322 210 230 227 124 57 52 114 62 250 148 109 219 149 226 246 222 240 289 258 224 212 205 211 197 191 194 194 199 198 197 206 244 305 294 292 208 217
181 242 103 140 146 204 199 157 212 185 85 183 121 141 216 85 64 249 194 211 221 223 257 240 196 214 240 202 188 186 191 192 186 187 201 214 166 137 99 268 268 235 223 211